Location: Unspecified
(48.2082°N, 0.0000°E)
Time: 12:46:44
(UTC+00:00)

Transit 4A - Pass Details

Date: 23 June 2019
Orbit: 863 x 981 km, 66.8° (Epoch: 17 August)

Event Time Altitude Azimuth Distance (km) Brightness Sun altitude
Rises 16:22:14 0° 324° (NW) 3,693 11.4 33.7°
Reaches altitude 10° 16:24:50 10° 325° (NW) 2,737 10.9 33.3°
Maximum altitude 16:31:17 89° 233° (SW) 973 8.6 32.2°
Drops below altitude 10° 16:37:32 10° 148° (SSE) 2,665 10.1 31.2°
Sets 16:40:02 0° 148° (SSE) 3,590 10.7 30.7°
